• In Belarus
  • List of Countries
  • For 7 days
  • Water Temperature
  • Satellite Maps
  • Weather Map
  • Weather Widgets
  • user-avatar
    Login

    Hourly Weather Krasnoe Turgenevo

    Today, 22 September, Saturday

    Time Temperature Precipitation Wind Pressure Humidity
    00:00 +17°C° 0 mm 2 mps 749 mmHg 75%
    01:00 +17°C° 0 mm 2 mps 749 mmHg 76%
    02:00 +17°C° 0 mm 2 mps 749 mmHg 74%
    03:00 +16°C° 0 mm 2 mps 749 mmHg 74%
    04:00 +16°C° 0 mm 2 mps 749 mmHg 75%
    05:00 +16°C° 0 mm 2 mps 749 mmHg 75%
    06:00 +17°C° 0 mm 3 mps 749 mmHg 72%
    07:00 +19°C° 0 mm 3 mps 748 mmHg 69%
    08:00 +20°C° 0 mm 3 mps 748 mmHg 65%
    09:00 +21°C° 0 mm 4 mps 748 mmHg 62%
    10:00 +23°C° 0 mm 4 mps 748 mmHg 58%
    11:00 +26°C° 0 mm 4 mps 748 mmHg 54%
    12:00 +26°C° 0 mm 5 mps 747 mmHg 53%
    13:00 +27°C° 0 mm 5 mps 747 mmHg 51%
    14:00 +27°C° 0 mm 6 mps 746 mmHg 49%
    15:00 +26°C° 0 mm 5 mps 746 mmHg 54%
    16:00 +25°C° 0 mm 4 mps 745 mmHg 59%
    17:00 +23°C° 0 mm 4 mps 745 mmHg 64%
    18:00 +22°C° 0 mm 4 mps 744 mmHg 63%
    19:00 +22°C° 0 mm 4 mps 744 mmHg 63%
    20:00 +21°C° 0 mm 5 mps 744 mmHg 62%
    21:00 +21°C° 0 mm 5 mps 743 mmHg 60%
    22:00 +21°C° 0 mm 5 mps 743 mmHg 57%
    23:00 +20°C° 0 mm 5 mps 743 mmHg 55%

    Tomorrow, 23 September, Sunday

    Time Temperature Precipitation Wind Pressure Humidity
    00:00 +20°C° 0 mm 5 mps 742 mmHg 57%
    01:00 +19°C° 0 mm 5 mps 742 mmHg 58%
    02:00 +19°C° 0 mm 5 mps 742 mmHg 60%
    03:00 +16°C° 0.3 mm 5 mps 742 mmHg 66%
    04:00 +15°C° 0.3 mm 5 mps 741 mmHg 71%
    05:00 +14°C° 0.3 mm 5 mps 741 mmHg 77%
    06:00 +13°C° 0.8 mm 5 mps 741 mmHg 81%
    07:00 +11°C° 0.8 mm 6 mps 742 mmHg 84%
    08:00 +9°C° 0.8 mm 6 mps 742 mmHg 88%
    09:00 +9°C° 0.4 mm 6 mps 742 mmHg 86%
    10:00 +10°C° 0.4 mm 5 mps 743 mmHg 84%
    11:00 +10°C° 0.4 mm 5 mps 743 mmHg 82%
    12:00 +11°C° 0.1 mm 4 mps 744 mmHg 80%
    13:00 +12°C° 0.1 mm 4 mps 744 mmHg 78%
    14:00 +12°C° 0.1 mm 4 mps 744 mmHg 76%
    15:00 +12°C° 0 mm 4 mps 744 mmHg 77%
    16:00 +12°C° 0 mm 4 mps 744 mmHg 78%
    17:00 +12°C° 0 mm 3 mps 744 mmHg 80%
    18:00 +11°C° 0 mm 3 mps 744 mmHg 83%
    19:00 +10°C° 0 mm 3 mps 744 mmHg 86%
    20:00 +10°C° 0 mm 3 mps 744 mmHg 89%
    21:00 +9°C° 0 mm 3 mps 744 mmHg 90%
    22:00 +9°C° 0 mm 3 mps 744 mmHg 91%
    23:00 +9°C° 0 mm 3 mps 744 mmHg 92%

    Day after tomorrow, 24 September, Monday

    Time Temperature Precipitation Wind Pressure Humidity
    00:00 +8°C° 0 mm 3 mps 744 mmHg 92%
    01:00 +8°C° 0 mm 3 mps 744 mmHg 93%
    02:00 +8°C° 0 mm 3 mps 744 mmHg 94%
    03:00 +8°C° 0 mm 3 mps 744 mmHg 93%
    04:00 +8°C° 0 mm 3 mps 744 mmHg 93%
    05:00 +7°C° 0 mm 3 mps 744 mmHg 92%
    06:00 +9°C° 0 mm 3 mps 743 mmHg 87%
    07:00 +10°C° 0 mm 3 mps 743 mmHg 82%
    08:00 +11°C° 0 mm 4 mps 743 mmHg 77%
    09:00 +10°C° 0.1 mm 5 mps 742 mmHg 75%
    10:00 +11°C° 0.1 mm 6 mps 742 mmHg 73%
    11:00 +12°C° 0.1 mm 7 mps 741 mmHg 71%
    12:00 +11°C° 1.3 mm 8 mps 740 mmHg 75%
    13:00 +10°C° 1.3 mm 8 mps 739 mmHg 80%
    14:00 +8°C° 1.3 mm 9 mps 738 mmHg 84%
    15:00 +10°C° 3 mm 9 mps 736 mmHg 86%
    16:00 +10°C° 3 mm 9 mps 735 mmHg 87%
    17:00 +9°C° 3 mm 10 mps 733 mmHg 89%
    18:00 +11°C° 1.3 mm 10 mps 732 mmHg 87%
    19:00 +11°C° 1.3 mm 10 mps 731 mmHg 86%
    20:00 +11°C° 1.3 mm 10 mps 729 mmHg 84%
    21:00 +9°C° 0.1 mm 11 mps 729 mmHg 83%
    22:00 +8°C° 0.1 mm 11 mps 729 mmHg 82%
    23:00 +7°C° 0.1 mm 11 mps 729 mmHg 82%

    25 September, Tuesday

    Time Temperature Precipitation Wind Pressure Humidity
    00:00 +7°C° 0.1 mm 11 mps 730 mmHg 82%
    01:00 +7°C° 0.1 mm 11 mps 730 mmHg 82%
    02:00 +7°C° 0.1 mm 11 mps 730 mmHg 82%
    03:00 +7°C° 0.1 mm 11 mps 731 mmHg 82%
    04:00 +7°C° 0.1 mm 11 mps 731 mmHg 81%
    05:00 +7°C° 0.1 mm 10 mps 732 mmHg 81%
    06:00 +7°C° 0.1 mm 10 mps 733 mmHg 80%
    07:00 +6°C° 0.1 mm 10 mps 734 mmHg 80%
    08:00 +6°C° 0.1 mm 10 mps 734 mmHg 79%
    09:00 +6°C° 0.2 mm 10 mps 735 mmHg 79%
    10:00 +6°C° 0.2 mm 10 mps 736 mmHg 79%
    11:00 +6°C° 0.2 mm 10 mps 738 mmHg 78%
    12:00 +6°C° 0.5 mm 10 mps 738 mmHg 79%
    13:00 +6°C° 0.5 mm 9 mps 739 mmHg 79%
    14:00 +5°C° 0.5 mm 9 mps 740 mmHg 80%
    15:00 +5°C° 0.5 mm 9 mps 741 mmHg 80%
    16:00 +5°C° 0.5 mm 8 mps 742 mmHg 81%
    17:00 +5°C° 0.5 mm 8 mps 742 mmHg 81%
    18:00 +5°C° 0.2 mm 7 mps 743 mmHg 81%
    19:00 +5°C° 0.2 mm 6 mps 744 mmHg 81%
    20:00 +4°C° 0.2 mm 6 mps 744 mmHg 81%
    21:00 +4°C° 0 mm 6 mps 745 mmHg 82%
    22:00 +4°C° 0 mm 6 mps 745 mmHg 82%
    23:00 +4°C° 0 mm 6 mps 745 mmHg 82%

    26 September, Wednesday

    Time Temperature Precipitation Wind Pressure Humidity
    00:00 +3°C° 0 mm 5 mps 746 mmHg 83%
    01:00 +3°C° 0 mm 5 mps 747 mmHg 84%
    02:00 +2°C° 0 mm 5 mps 747 mmHg 85%
    03:00 +2°C° 0 mm 5 mps 748 mmHg 84%
    04:00 +1°C° 0 mm 5 mps 748 mmHg 83%
    05:00 +1°C° 0 mm 5 mps 749 mmHg 82%
    06:00 +1°C° 0 mm 5 mps 749 mmHg 78%
    07:00 +2°C° 0 mm 5 mps 749 mmHg 74%
    08:00 +3°C° 0 mm 5 mps 750 mmHg 71%
    09:00 +5°C° 0 mm 6 mps 749 mmHg 66%
    10:00 +6°C° 0 mm 7 mps 749 mmHg 62%
    11:00 +9°C° 0 mm 7 mps 749 mmHg 58%
    12:00 +9°C° 0 mm 8 mps 748 mmHg 62%
    13:00 +9°C° 0 mm 8 mps 748 mmHg 65%
    14:00 +7°C° 0 mm 8 mps 747 mmHg 69%
    15:00 +7°C° 0.3 mm 8 mps 747 mmHg 73%
    16:00 +7°C° 0.3 mm 8 mps 747 mmHg 78%
    17:00 +7°C° 0.3 mm 8 mps 746 mmHg 82%
    18:00 +8°C° 0.1 mm 7 mps 746 mmHg 84%
    19:00 +8°C° 0.1 mm 7 mps 746 mmHg 85%
    20:00 +8°C° 0.1 mm 7 mps 746 mmHg 86%
    21:00 +8°C° 0.2 mm 7 mps 746 mmHg 87%
    22:00 +8°C° 0.2 mm 7 mps 745 mmHg 87%
    23:00 +8°C° 0.2 mm 7 mps 745 mmHg 88%

    27 September, Thursday

    Time Temperature Precipitation Wind Pressure Humidity
    00:00 +6°C° 0.5 mm 8 mps 745 mmHg 88%
    01:00 +6°C° 0.5 mm 8 mps 744 mmHg 88%
    02:00 +6°C° 0.5 mm 8 mps 744 mmHg 88%
    03:00 +6°C° 0.3 mm 9 mps 743 mmHg 87%
    04:00 +5°C° 0.3 mm 9 mps 743 mmHg 86%
    05:00 +5°C° 0.3 mm 9 mps 742 mmHg 86%
    06:00 +5°C° 0.2 mm 9 mps 742 mmHg 86%
    07:00 +6°C° 0.2 mm 9 mps 741 mmHg 86%
    08:00 +6°C° 0.2 mm 9 mps 741 mmHg 86%
    09:00 +6°C° 0.1 mm 9 mps 741 mmHg 85%
    10:00 +7°C° 0.1 mm 9 mps 741 mmHg 84%
    11:00 +8°C° 0.1 mm 9 mps 741 mmHg 84%
    12:00 +9°C° 0.1 mm 8 mps 741 mmHg 83%
    13:00 +10°C° 0.1 mm 8 mps 741 mmHg 83%
    14:00 +10°C° 0.1 mm 8 mps 740 mmHg 83%
    15:00 +10°C° 0.1 mm 8 mps 740 mmHg 84%
    16:00 +10°C° 0.1 mm 8 mps 740 mmHg 85%
    17:00 +10°C° 0.1 mm 8 mps 740 mmHg 86%
    18:00 +10°C° 0 mm 8 mps 739 mmHg 86%
    19:00 +10°C° 0 mm 8 mps 739 mmHg 86%
    20:00 +10°C° 0 mm 8 mps 739 mmHg 86%
    21:00 +10°C° 0 mm 8 mps 739 mmHg 85%
    22:00 +10°C° 0 mm 8 mps 739 mmHg 85%
    23:00 +10°C° 0 mm 8 mps 738 mmHg 84%
    Show more